Regional Weather Roundup
Issued by NWS Little Rock, AR

Home | Current Version | Previous Version | Graphics & Text | Print | Product List | Glossary On
Versions: 1 2 3 4 5 6 7 8 9 10 11 12 13 14 15 16 17 18 19 20 21 22 23 24 25 26 27
000
ASUS44 KLZK 041605
RWRLZK

WEATHER ROUNDUP FOR ARKANSAS
NATIONAL WEATHER SERVICE LITTLE ROCK AR
1100 AM CDT WED MAY 04 2016

NOTE: "FAIR" INDICATES FEW OR NO CLOUDS BELOW 12,000 FEET WITH NO
SIGNIFICANT WEATHER AND/OR OBSTRUCTIONS TO VISIBILITY.

ARZ001-003-010-029-041700-
NORTHWEST ARKANSAS

CITY           SKY/WX    TMP DP  RH WIND       PRES   REMARKS
FAYETTEVILLE   SUNNY     69  50  50 W15G23    29.94F
FORT SMITH     SUNNY     70  52  52 W12       29.96S
HARRISON       SUNNY     69  47  45 NW12G25   29.89S
BENTONVILLE    SUNNY     68  46  45 NW14G22   29.96R
ROGERS         SUNNY     66  49  54 NW16G22   29.95R
SILOAM SPGS    SUNNY    N/A N/A N/A NW18G25   29.96S
HIGHFILL       SUNNY     69  50  50 NW20G25   29.95R
SPRINGDALE     SUNNY     68  48  49 W12G23    29.96S
$$

ARZ004-005-016-041700-
NORTH CENTRAL ARKANSAS

CITY           SKY/WX    TMP DP  RH WIND       PRES   REMARKS
BATESVILLE     SUNNY     73  48  40 W14G24    29.84F
FLIPPIN        SUNNY    N/A N/A N/A NW20G25   29.84R
MTN HOME       SUNNY     69  47  45 NW9G24    29.85S
$$

ARZ040-041-041700-
WEST CENTRAL ARKANSAS

CITY           SKY/WX    TMP DP  RH WIND       PRES   REMARKS
MENA           SUNNY     72  54  53 W12G17    29.98F
$$

ARZ009-017-025-026-028-041700-
NORTHEAST ARKANSAS

CITY           SKY/WX    TMP DP  RH WIND       PRES   REMARKS
CORNING          N/A     68  54  60 W17       29.79S
JONESBORO      LGT RAIN  70  50  49 W14       29.81F
NEWPORT        SUNNY     74  51  44 W16       29.84F
WALNUT RIDGE   SUNNY     72  48  43 W15G25    29.80F
BLYTHEVILLE    SUNNY     69  52  54 W12G23    29.80F
$$

ARZ022-023-033-042-044-041700-
CENTRAL ARKANSAS

CITY           SKY/WX    TMP DP  RH WIND       PRES   REMARKS
LITTLE ROCK    SUNNY     75  49  39 W15G26    29.91F
N LITTLE ROCK    N/A     71  52  51 W9G20     29.89F
JACKSONVILLE   SUNNY     71  52  51 W16       29.89F
SEARCY         SUNNY     69  52  54 W12G20    29.89F
HOT SPRINGS    SUNNY     72  49  44 W10G17    29.94F
RUSSELLVILLE   SUNNY     69  51  52 W15G21    29.91F
$$

ARZ036-041700-
EAST ARKANSAS

CITY           SKY/WX    TMP DP  RH WIND       PRES   REMARKS
WEST MEMPHIS   SUNNY     68  52  56 W12G24    29.84F
$$

ARZ050-053-066-070-073-041700-
SOUTHWEST ARKANSAS

CITY           SKY/WX    TMP DP  RH WIND       PRES   REMARKS
ARKADELPHIA    FAIR      72  57  58 W8        29.96F
CAMDEN         SUNNY     72  48  43 W9        29.97F
TEXARKANA      SUNNY     72  51  47 W15       30.01S
EL DORADO      SUNNY     72  50  45 W12G20    29.99F
DE QUEEN       SUNNY     71  56  58 W12       29.98F
$$

ARZ056-057-069-041700-
SOUTHEAST ARKANSAS

CITY           SKY/WX    TMP DP  RH WIND       PRES   REMARKS
PINE BLUFF     SUNNY     71  49  45 W13       29.93F
STUTTGART      SUNNY     70  54  56 W21       29.91S
MONTICELLO     SUNNY     73  50  44 W10G18    29.95F

$$






USA.gov is the U.S. government's official web portal to all federal, state and local government web resources and services.